This demonstration page uses our WeatherBlox Daily Observations layout. Learn more.

Left ArrowRight Arrow

36.17497, -115.13722

Hourly Observations for June 30, 2022

Temp ( °F °C ) Dew Point ( °F °C ) Humidity (%) Winds ( mph kmh ) Pressure ( in mb ) Visibility ( mi km ) Precip ( " mm )
12:53 am 00:53 Clear 95 35 39 3.9 14 14 SSW 13 20 29.81 1010 10 16 0.00 0.00
1:53 am 01:53 Clear 94 34.4 39 3.9 15 15 SW 16 26 29.81 1010 10 16 0.00 0.00
2:28 am 02:28 Clear 92 33.3 40 4.4 16 16 SSE 15 24 29.71 1006 10 16 0.00 0.00
2:53 am 02:53 Clear 92 33.3 39 3.9 16 16 S 17 28 29.83 1010 10 16 0.00 0.00
3:53 am 03:53 Clear 91 32.8 38 3.3 15 15 SSE 13 20 29.84 1011 10 16 0.00 0.00
4:53 am 04:53 Clear 90 32.2 40 4.4 17 17 S 14 22 29.85 1011 10 16 0.00 0.00
5:53 am 05:53 Sunny 89 31.7 40 4.4 18 18 S 13 20 29.87 1011 10 16 0.00 0.00
6:53 am 06:53 Sunny 90 32.2 39 3.9 17 17 S 16 26 29.88 1012 10 16 0.00 0.00
7:53 am 07:53 Sunny 93 33.9 39 3.9 15 15 S 20 31 29.87 1011 10 16 0.00 0.00
8:53 am 08:53 Sunny 95 35 40 4.4 15 15 S 17 28 29.88 1012 10 16 0.00 0.00
9:53 am 09:53 Sunny 98 36.7 41 5 14 14 S 13 20 29.88 1012 10 16 0.00 0.00
10:53 am 10:53 Sunny 100 37.8 43 6.1 14 14 SSW 14 22 29.87 1012 10 16 0.00 0.00
11:53 am 11:53 Sunny 102 38.9 42 5.6 13 13 S 15 24 29.86 1011 10 16 0.00 0.00
12:53 pm 12:53 Sunny 104 40 43 6.1 12 12 SSW 16 26 29.84 1011 10 16 0.00 0.00
1:53 pm 13:53 Sunny 103 39.4 42 5.6 12 12 SW 13 20 29.82 1010 10 16 0.00 0.00
2:53 pm 14:53 Sunny 104 40 41 5 12 12 S 16 26 29.80 1009 10 16 0.00 0.00
3:53 pm 15:53 Sunny 105 40.6 39 3.9 10 10 SSW 18 30 29.78 1009 10 16 0.00 0.00
4:53 pm 16:53 Sunny 105 40.6 38 3.3 10 10 SW 20 31 29.77 1008 10 16 0.00 0.00
5:53 pm 17:53 Sunny 104 40 36 2.2 9 9 SW 18 30 29.76 1008 10 16 0.00 0.00
6:53 pm 18:53 Sunny 103 39.4 36 2.2 10 10 SW 14 22 29.76 1008 10 16 0.00 0.00
7:53 pm 19:53 Sunny 101 38.3 37 2.8 11 11 SW 12 19 29.77 1008 10 16 0.00 0.00
8:53 pm 20:53 Clear 99 37.2 37 2.8 12 12 SSW 12 19 29.77 1008 10 16 0.00 0.00
9:53 pm 21:53 Clear 98 36.7 38 3.3 12 12 SW 9 15 29.79 1009 10 16 0.00 0.00
10:53 pm 22:53 Clear 96 35.6 37 2.8 13 13 WSW 10 17 29.79 1009 10 16 0.00 0.00
11:53 pm 23:53 Clear 94 34.4 37 2.8 14 14 WSW 9 15 29.80 1009 10 16 0.00 0.00

Powered by AerisWeather